SCP
0 0 0 0 0 0 0 0 1 1 1 1 1 1 0 0 0 0 0 0 0 0 0 0 0 0 0 0 0 0 0 0 0 0 0 0 0 0 0 0 0 0 0
0 0 0 0 0 0 0 0 1 1 1 1 1 0 0 0 0 0 0 0 0 0 0 0 0 0 0 0 0 0 0 0 0 0 0 0 0 0 0 0 0 0 0
1 1 0 0 0 0 0 0 1 1 1 1 0 0 0 0 0 0 0 0 0 0 0 0 0 0 0 0 0 0 0 0 0 0 0 0 0 0 0 0 0 0 0
1 1 0 0 0 0 0 0 1 1 0 0 0 0 0 0 0 0 0 0 0 0 0 0 0 0 0 0 0 0 0 0 0 0 0 0 0 0 0 0 0 0 0
0 0 1 1 0 0 0 0 0 0 0 0 0 0 0 0 0 0 0 0 0 0 0 0 0 0 0 0 0 0 0 0 0 0 0 0 0 0 0 0 0 0 0
0 0 1 1 1 0 0 0 0 0 0 0 0 0 0 0 0 0 0 0 0 0 0 0 0 0 0 0 0 0 0 0 0 0 0 0 0 0 0 0 0 0 0
0 0 1 1 1 0 0 0 0 0 0 0 0 0 0 0 0 0 0 0 0 0 0 0 0 0 0 0 0 0 0 0 0 0 0 0 0 0 0 0 0 0 0
0 1 1 1 1 1 0 0 0 0 0 0 0 0 0 0 0 0 0 0 0 0 0 0 0 0 0 0 0 0 0 0 0 0 0 0 0 0 0 0 0 0 0
0 1 1 1 1 1 0 0 0 0 0 0 0 0 0 0 0 0 0 0 0 0 0 0 0 0 0 0 0 0 0 0 0 0 0 0 0 0 0 0 0 0 0
0 0 1 0 0 0 0 0 0 0 0 0 0 0 0 0 0 0 0 0 0 0 0 0 0 0 0 0 0 0 0 0 0 0 0 0 0 0 0 0 0 0 0
0 1 1 1 0 0 0 0 0 0 0 0 0 0 0 0 0 0 0 0 0 0 0 0 0 0 0 0 0 0 0 0 0 0 0 0 0 0 0 0 0 0 0
1 1 1 1 0 0 0 0 0 0 0 0 0 0 0 0 0 0 0 0 0 0 0 0 0 0 0 0 0 0 0 0 0 0 0 0 0 0 0 0 0 0 0
1 1 1 0 0 0 0 0 0 0 0 0 0 0 0 0 0 0 0 0 0 0 0 0 0 0 0 0 0 0 0 0 0 0 0 0 0 0 0 0 0 0 0
1 1 1 0 0 0 0 0 0 0 0 0 0 0 0 0 0 0 0 0 0 0 0 0 0 0 0 0 0 0 0 0 0 0 0 0 0 0 0 0 0 0 0
1 1 1 1 1 1 1 1 1 1 1 1 1 1 0 0 0 0 0 0 0 0 0 0 0 0 0 0 0 0 0 0 0 0 0 0 0 0 0 0 0 0 0
1 1 1 1 1 1 1 1 1 1 1 1 1 1 1 1 1 0 0 0 0 0 0 0 0 0 0 0 0 0 0 0 0 0 0 0 0 0 0 0 0 0 0
1 1 1 1 1 1 1 1 1 1 1 1 1 1 1 1 1 1 0 0 0 1 0 0 0 0 0 0 0 0 0 0 0 0 0 0 0 0 0 0 0 0 0
1 1 1 1 1 1 2 2 2 2 2 1 1 1 1 1 1 1 1 1 1 1 0 0 0 0 0 0 0 0 0 0 0 0 0 0 0 0 0 0 0 0 0
0 1 1 1 1 2 2 2 2 2 2 2 2 1 1 1 1 1 1 1 1 1 0 0 0 0 0 0 0 0 0 0 0 0 0 0 0 0 0 0 0 0 0
0 0 1 1 1 2 2 3 3 3 3 3 2 2 2 2 2 2 2 1 1 1 0 0 0 0 0 0 0 0 0 0 0 0 0 0 0 0 0 0 0 0 0
0 0 0 0 1 2 2 3 3 3 3 3 3 2 2 2 2 2 2 2 2 1 1 0 0 0 0 0 0 0 0 0 0 0 0 0 0 0 0 0 0 0 0
0 0 0 0 0 1 2 3 3 4 4 4 3 3 2 2 2 2 2 3 2 2 1 1 0 0 0 0 0 0 0 0 0 0 0 0 0 0 0 0 0 0 0
0 0 0 0 0 1 1 2 3 4 4 4 4 3 3 2 2 2 2 3 3 2 2 1 0 0 0 0 0 0 0 0 0 0 0 0 0 0 0 0 0 0 0
0 0 0 0 0 0 0 1 2 3 3 3 4 4 3 3 2 2 2 2 2 2 2 1 0 0 0 0 0 0 0 0 0 0 0 0 0 0 0 0 0 0 0
0 0 0 0 0 0 0 0 1 1 2 2 3 3 3 3 3 3 3 3 2 2 2 1 1 0 0 0 0 0 0 0 0 0 0 0 0 0 0 0 0 0 0
0 0 0 0 0 0 0 0 0 1 1 2 2 3 3 4 4 3 3 3 3 2 2 1 1 0 0 0 0 0 0 0 0 0 0 0 0 0 0 0 0 0 0
Wind_Speed
10 14 15 13 13 14 15 15 15 15 14 14 14 13 11 10 8 6 4 4 4 6 9 12 14 14 14 13 13 13 13 13 13 12 11 11 10 10 9 7 4 8 8
14 16 15 13 13 14 14 15 15 15 14 14 13 12 11 9 8 6 5 5 6 9 11 13 14 14 13 13 12 12 12 12 11 10 7 8 9 9 8 7 7 7 7
15 16 16 12 12 13 14 15 16 15 14 13 12 11 10 9 8 7 7 8 10 12 13 14 14 13 13 12 11 11 11 10 10 7 2 6 8 8 7 6 6 6 6
15 15 15 14 13 13 14 15 15 15 14 13 12 11 10 9 9 8 9 11 13 13 14 14 13 12 12 11 10 10 9 9 7 1 4 7 7 7 5 4 4 4 4
14 13 14 14 13 13 14 14 15 14 14 13 12 11 10 9 9 9 10 12 12 13 12 12 12 11 10 10 9 9 8 8 4 2 7 6 6 6 4 4 4 4 3
14 13 15 13 13 12 13 13 14 14 14 13 12 11 10 10 10 10 10 11 11 11 11 11 10 10 9 8 8 7 7 5 3 6 6 5 6 7 8 8 9 9 10
13 12 15 13 13 12 12 12 12 14 14 13 13 12 11 10 10 10 9 9 9 9 10 10 9 8 8 7 6 6 6 2 3 5 5 6 8 9 11 13 14 15 15
12 12 13 13 11 10 10 11 11 13 14 14 13 12 11 11 10 10 9 8 8 9 9 9 8 8 7 6 5 5 5 1 3 5 5 6 9 10 14 15 16 16 16
12 11 11 12 11 10 9 9 10 11 12 13 12 11 10 10 10 10 8 8 8 8 8 8 8 7 6 6 6 6 6 1 2 4 4 6 10 13 14 15 14 14 14
10 11 11 10 10 11 10 9 8 9 11 12 11 10 9 10 10 9 8 7 7 8 8 8 8 7 7 7 7 7 5 3 3 4 4 8 11 12 13 13 12 12 12
9 10 10 10 9 9 8 9 9 9 10 11 11 10 10 9 10 9 8 6 6 7 8 9 9 9 8 8 7 6 4 2 4 3 5 10 11 11 11 11 11 11 11
10 10 9 10 9 9 6 8 9 9 10 11 10 12 9 7 6 6 9 7 5 6 8 10 10 8 5 5 6 5 3 3 3 4 6 10 10 10 10 9 10 10 10
10 10 10 10 9 9 7 6 5 6 7 10 11 11 9 7 6 6 6 7 7 8 7 9 8 5 4 3 3 3 3 3 2 4 7 10 10 10 9 8 8 9 9
9 10 11 11 9 9 8 6 6 6 6 7 9 11 9 6 7 6 6 7 7 6 6 6 4 5 5 5 5 4 5 3 3 3 7 9 9 9 8 8 7 7 8
10 10 11 11 11 10 9 7 7 7 7 9 8 10 11 8 8 8 6 6 7 6 7 6 6 6 5 5 4 5 5 6 5 5 6 8 9 9 8 7 6 7 7
11 11 12 13 12 11 10 9 8 8 8 8 9 11 12 9 8 8 8 8 7 7 7 6 7 6 5 4 5 5 5 6 6 6 6 8 8 8 8 7 6 6 6
11 12 13 13 14 14 13 12 9 8 8 9 9 11 13 12 11 9 8 8 8 8 8 7 7 5 5 5 6 6 5 6 6 7 6 5 6 7 7 7 7 6 5
10 11 12 11 14 15 14 12 9 9 9 9 9 10 14 14 13 11 9 9 9 8 7 7 7 6 6 6 5 5 5 5 7 7 6 6 5 6 7 7 7 6 5
10 11 11 13 14 15 14 12 11 9 9 9 9 10 12 15 15 12 10 9 10 8 8 8 8 7 7 6 5 5 5 6 6 7 7 7 6 6 6 7 7 5 4
8 9 11 11 13 14 12 10 9 10 10 10 10 11 13 13 15 14 10 12 11 9 9 9 10 8 6 6 5 5 5 6 6 7 8 7 7 8 7 7 6 5 4
7 8 10 10 11 11 9 10 10 11 11 11 11 13 14 14 14 14 11 12 12 11 12 13 10 10 7 7 5 5 5 6 7 7 7 8 9 9 8 8 6 5 4
5 6 8 9 10 11 10 10 10 11 10 11 10 12 14 15 15 13 15 13 13 12 14 15 13 9 7 9 7 5 6 7 8 9 8 8 9 8 9 9 7 6 4
4 5 5 7 8 9 10 9 9 9 9 9 11 12 14 16 15 15 16 14 14 13 13 15 16 15 10 10 9 8 6 7 6 7 10 9 10 8 8 8 8 7 5
6 5 6 6 7 7 8 9 13 12 13 14 12 12 13 15 15 15 15 15 14 13 14 15 16 14 13 10 9 7 5 2 5 6 6 9 10 10 9 7 8 7 6
6 6 6 6 5 5 6 8 11 13 13 11 12 14 14 13 15 15 15 14 14 13 15 16 16 17 14 13 9 7 7 4 5 5 5 6 7 7 7 8 6 6 6
7 7 7 7 6 5 5 7 9 12 13 14 14 13 12 10 11 14 14 14 14 13 15 15 15 18 15 15 12 9 8 7 8 7 6 5 5 5 6 5 5 5 5
Wind_Direction
152 151 149 152 151 151 149 146 142 138 134 130 126 123 120 118 115 111 112 118 132 135 123 115 109 101 94 91 88 86 83 81 77 71 67 69 77 79 75 60 44 81 64
147 148 144 150 153 153 151 146 139 135 132 129 126 124 123 120 118 113 110 113 126 125 117 110 105 100 97 95 93 90 87 84 81 75 75 88 78 76 74 59 38 61 62
147 145 150 149 150 150 147 141 137 136 133 130 129 127 124 123 121 111 100 98 108 111 105 104 101 100 99 98 95 92 89 87 84 83 123 91 88 78 76 66 61 64 61
148 148 154 145 150 149 145 142 141 139 137 134 131 127 125 125 124 114 98 95 97 98 97 98 98 100 102 100 98 94 91 91 88 150 88 75 81 78 80 74 65 58 50
150 149 142 147 149 149 148 148 147 144 141 137 131 127 126 128 128 116 98 92 93 94 95 95 98 101 103 101 98 95 94 95 109 92 78 73 74 70 71 72 60 62 54
152 150 143 148 146 146 147 151 152 150 145 139 133 130 130 131 128 114 100 95 94 95 97 99 101 102 103 101 98 97 100 112 170 79 73 67 71 74 74 76 77 73 68
154 150 148 147 146 149 153 156 159 156 150 144 140 138 135 131 126 121 113 108 106 106 108 109 107 105 102 99 99 101 104 113 79 84 72 67 69 74 82 81 77 74 71
154 153 150 146 145 152 161 165 167 162 156 151 148 147 142 136 133 133 129 125 123 122 121 119 113 107 101 99 101 105 110 162 112 90 79 75 74 84 86 80 76 72 69
159 159 159 162 160 161 168 173 175 169 161 157 156 153 146 141 142 143 142 140 138 134 130 125 117 111 106 104 105 107 106 48 125 93 88 82 90 91 87 82 77 73 70
168 169 169 172 174 175 177 177 180 173 164 161 159 156 149 148 152 153 161 152 147 143 139 130 120 115 108 106 109 111 121 203 113 118 108 99 98 94 88 83 78 74 70
181 181 180 178 180 182 181 169 184 175 170 168 167 159 167 178 170 170 162 152 161 155 147 134 126 120 117 112 110 123 183 173 130 117 106 105 103 96 90 85 82 77 73
188 191 190 190 186 187 180 179 190 187 182 191 185 180 193 192 183 174 145 171 171 156 147 138 133 142 171 143 135 184 177 160 148 132 110 114 109 102 95 91 87 83 78
194 196 200 200 197 194 188 192 190 191 192 199 196 191 195 192 184 189 174 177 183 176 169 148 167 177 178 155 168 172 159 169 157 137 121 120 117 110 105 99 93 87 82
202 202 205 207 205 205 204 197 200 198 197 200 201 200 197 196 198 196 196 190 189 191 186 190 197 176 178 177 182 173 171 181 169 147 119 125 124 121 117 110 102 94 88
214 211 211 212 212 209 212 213 212 210 206 204 205 206 205 202 203 201 204 199 201 197 193 199 199 187 187 182 183 188 183 180 173 158 132 125 127 130 128 124 116 106 96
220 217 213 214 215 214 213 215 217 218 214 217 209 210 210 211 208 204 207 204 204 202 202 201 202 192 190 188 186 192 190 181 182 175 153 135 126 133 139 136 124 112 101
227 223 217 216 215 217 219 219 221 221 221 220 216 214 212 214 212 208 209 205 204 203 201 203 197 196 189 186 190 191 192 192 186 180 173 162 149 137 147 146 136 121 105
241 233 228 219 219 219 220 219 219 220 223 226 222 218 216 216 214 212 211 207 203 198 196 195 192 191 188 192 190 186 191 191 196 188 181 179 172 162 155 149 145 130 113
247 242 236 229 227 224 223 221 221 219 221 226 227 222 218 216 214 212 213 208 200 198 199 196 198 198 195 192 189 186 192 193 194 195 195 187 182 182 170 146 138 126 120
258 252 245 238 234 233 229 225 222 221 222 223 226 227 223 218 214 213 212 209 199 198 199 198 196 197 197 181 176 187 197 200 202 203 200 192 187 189 191 177 171 149 141
263 254 249 246 239 235 229 224 222 223 224 223 224 227 227 224 216 213 211 208 202 203 202 200 193 190 186 171 168 187 202 213 216 207 206 201 196 195 196 194 200 192 174
287 274 263 253 248 241 234 232 231 231 230 228 224 225 226 224 220 214 214 209 204 206 204 201 192 190 180 184 186 183 202 203 214 213 208 210 205 197 203 202 200 200 205
340 316 293 278 266 255 249 243 239 236 235 231 228 225 223 222 220 216 219 216 207 206 205 202 196 193 188 193 201 196 199 210 182 190 210 209 209 204 204 200 200 197 198
0 340 315 299 282 269 257 245 239 233 231 230 230 229 227 222 221 218 219 220 213 211 210 204 202 203 196 190 202 228 247 238 184 176 192 209 211 212 206 194 193 187 187
358 347 335 325 308 291 266 251 248 245 245 245 240 238 235 227 220 217 217 218 217 215 217 209 204 206 204 198 191 188 204 221 233 203 182 181 199 209 205 196 186 179 174
356 350 340 332 326 317 293 267 250 251 250 249 245 243 240 234 224 219 215 216 217 217 221 216 208 210 209 209 200 193 188 189 200 210 201 170 180 175 187 188 188 176 171